TimePST,TemperatureF,Dew PointF,Humidity,Sea Level PressureIn,VisibilityMPH,Wind Direction,Wind SpeedMPH,Gust SpeedMPH,PrecipitationIn,Events,Conditions,WindDirDegrees,DateUTC
12:10 AM,39.2,35.6,87,29.97,4.0,Calm,Calm,-,0.01,Rain,Light Rain,0,2012-11-17 08:10:00
12:18 AM,39.2,35.6,87,29.97,6.0,Calm,Calm,-,0.02,Rain,Light Rain,0,2012-11-17 08:18:00
12:53 AM,39.0,35.1,86,29.89,10.0,Calm,Calm,-,0.02,,Overcast,0,2012-11-17 08:53:00
1:53 AM,39.0,35.1,86,29.88,10.0,Calm,Calm,-,N/A,,Overcast,0,2012-11-17 09:53:00
2:53 AM,39.0,36.0,89,29.87,7.0,Calm,Calm,-,0.01,Rain,Light Rain,0,2012-11-17 10:53:00
3:14 AM,39.2,35.6,87,29.92,5.0,Calm,Calm,-,0.02,Rain,Light Rain,0,2012-11-17 11:14:00
3:25 AM,39.2,35.6,87,29.92,10.0,Calm,Calm,-,0.02,Rain,Light Rain,0,2012-11-17 11:25:00
3:53 AM,39.0,36.0,89,29.86,10.0,Calm,Calm,-,0.02,Rain,Light Rain,0,2012-11-17 11:53:00
4:06 AM,39.2,35.6,87,29.93,2.5,Variable,3.5,-,0.03,Rain,Rain,0,2012-11-17 12:06:00
4:16 AM,39.2,35.6,87,29.93,4.0,Variable,3.5,-,0.05,Rain,Rain,0,2012-11-17 12:16:00
4:27 AM,39.2,35.6,87,29.92,8.0,Calm,Calm,-,0.05,Rain,Light Rain,0,2012-11-17 12:27:00
4:37 AM,39.2,35.6,87,29.92,10.0,Calm,Calm,-,0.05,Rain,Light Rain,0,2012-11-17 12:37:00
4:53 AM,39.0,35.1,86,29.87,10.0,Calm,Calm,-,0.06,Rain,Light Rain,0,2012-11-17 12:53:00
5:18 AM,39.2,35.6,87,29.91,8.0,South,11.5,-,0.00,Rain,Light Rain,180,2012-11-17 13:18:00
5:34 AM,41.0,33.8,76,29.91,10.0,South,13.8,-,0.00,Rain,Light Rain,180,2012-11-17 13:34:00
5:41 AM,41.0,33.8,76,29.91,10.0,South,11.5,-,0.00,Rain,Light Rain,180,2012-11-17 13:41:00
5:53 AM,42.1,34.0,73,29.85,10.0,Calm,Calm,-,0.00,,Overcast,0,2012-11-17 13:53:00
6:09 AM,41.0,33.8,76,29.91,10.0,South,12.7,16.1,0.00,Rain,Light Rain,180,2012-11-17 14:09:00
6:53 AM,41.0,34.0,76,29.86,10.0,South,9.2,-,0.01,Rain,Light Rain,190,2012-11-17 14:53:00
7:14 AM,41.0,33.8,76,29.92,7.0,SSW,8.1,17.3,0.01,Rain,Light Rain,200,2012-11-17 15:14:00
7:39 AM,39.2,33.8,81,29.93,10.0,SSW,8.1,-,0.01,Rain,Light Rain,200,2012-11-17 15:39:00
7:53 AM,41.0,34.0,76,29.87,10.0,South,6.9,-,0.01,Rain,Light Rain,190,2012-11-17 15:53:00
8:00 AM,42.8,35.6,76,29.92,10.0,South,5.8,-,N/A,,Overcast,190,2012-11-17 16:00:00
8:08 AM,42.8,35.6,76,29.92,10.0,South,10.4,19.6,N/A,,Overcast,180,2012-11-17 16:08:00
8:44 AM,44.6,35.6,71,29.92,10.0,South,8.1,-,0.01,,Overcast,170,2012-11-17 16:44:00
8:53 AM,45.0,36.0,71,29.86,10.0,SSW,8.1,-,0.01,,Overcast,200,2012-11-17 16:53:00
9:53 AM,45.0,35.1,68,29.85,10.0,SSW,5.8,19.6,0.00,,Overcast,200,2012-11-17 17:53:00
10:32 AM,44.6,35.6,71,29.92,4.0,SSW,16.1,32.2,0.01,Rain,Rain,200,2012-11-17 18:32:00
10:49 AM,44.6,35.6,71,29.92,4.0,South,15.0,23.0,0.03,Rain,Light Rain,180,2012-11-17 18:49:00
10:53 AM,43.0,36.0,76,29.86,3.0,South,17.3,23.0,0.03,Rain,Light Rain,180,2012-11-17 18:53:00
10:59 AM,42.8,35.6,76,29.91,3.0,South,16.1,26.5,0.01,Rain,Light Rain,190,2012-11-17 18:59:00
11:10 AM,44.6,37.4,76,29.91,10.0,South,12.7,23.0,0.01,Rain,Light Rain,170,2012-11-17 19:10:00
11:21 AM,44.6,35.6,71,29.91,4.0,SSW,13.8,23.0,0.01,Rain,Light Rain,200,2012-11-17 19:21:00
11:53 AM,45.0,36.0,71,29.84,9.0,South,15.0,25.3,0.02,Rain,Light Rain,190,2012-11-17 19:53:00
12:34 PM,44.6,35.6,71,29.90,4.0,SSW,10.4,25.3,0.00,Rain,Light Rain,210,2012-11-17 20:34:00
12:53 PM,44.1,37.0,76,29.83,3.0,South,15.0,20.7,0.01,Rain,Light Rain,180,2012-11-17 20:53:00
1:00 PM,44.6,37.4,76,29.89,5.0,South,16.1,23.0,0.00,Rain,Light Rain,190,2012-11-17 21:00:00
1:53 PM,45.0,36.0,71,29.82,10.0,SSW,10.4,26.5,0.00,Rain,Light Rain,200,2012-11-17 21:53:00
2:08 PM,44.6,37.4,76,29.87,10.0,South,17.3,25.3,0.00,Rain,Light Rain,190,2012-11-17 22:08:00
2:15 PM,44.6,37.4,76,29.87,10.0,SSW,15.0,25.3,0.00,,Overcast,200,2012-11-17 22:15:00
2:33 PM,44.6,37.4,76,29.87,3.0,SSW,12.7,26.5,0.01,Rain,Light Rain,200,2012-11-17 22:33:00
2:38 PM,44.6,37.4,76,29.87,5.0,South,12.7,26.5,0.01,Rain,Light Rain,180,2012-11-17 22:38:00
2:53 PM,45.0,37.0,74,29.81,9.0,South,17.3,27.6,0.01,Rain,Light Rain,190,2012-11-17 22:53:00
3:20 PM,44.6,37.4,76,29.88,2.5,SSW,10.4,33.4,0.02,Rain,Light Rain,210,2012-11-17 23:20:00
3:28 PM,44.6,37.4,76,29.88,2.0,SW,10.4,21.9,0.03,Rain,Light Rain,230,2012-11-17 23:28:00
3:38 PM,44.6,35.6,71,29.88,3.0,SSW,17.3,27.6,0.04,Rain,Light Rain,210,2012-11-17 23:38:00
3:45 PM,44.6,35.6,71,29.88,2.0,SSW,13.8,26.5,0.05,Rain,Rain,200,2012-11-17 23:45:00
3:53 PM,43.0,36.0,76,29.82,2.5,SSW,15.0,23.0,0.06,Rain,Light Rain,200,2012-11-17 23:53:00
4:01 PM,42.8,35.6,76,29.89,3.0,South,17.3,27.6,0.00,Rain,Light Rain,180,2012-11-18 00:01:00
4:09 PM,42.8,35.6,76,29.90,2.5,SSW,15.0,29.9,0.01,Rain,Light Rain,200,2012-11-18 00:09:00
4:11 PM,42.8,35.6,76,29.90,1.8,SSW,15.0,29.9,0.03,Rain,Rain,210,2012-11-18 00:11:00
4:22 PM,41.0,35.6,81,29.90,3.0,South,13.8,20.7,0.06,Rain,Rain,190,2012-11-18 00:22:00
4:53 PM,39.9,35.1,83,29.86,2.5,South,11.5,21.9,0.13,Rain,Rain,190,2012-11-18 00:53:00
5:10 PM,39.2,33.8,81,29.90,5.0,South,11.5,21.9,0.02,Rain,Light Rain,190,2012-11-18 01:10:00
5:36 PM,42.8,33.8,70,29.91,9.0,South,11.5,18.4,0.03,Rain,Light Rain,170,2012-11-18 01:36:00
5:53 PM,43.0,32.0,65,29.85,10.0,SSW,19.6,34.5,0.03,Rain,Light Rain,200,2012-11-18 01:53:00
6:53 PM,42.1,34.0,73,29.86,5.0,SSW,15.0,25.3,0.00,Rain,Light Rain,210,2012-11-18 02:53:00
7:20 PM,41.0,33.8,76,29.93,10.0,SSW,12.7,24.2,0.01,Rain,Light Rain,210,2012-11-18 03:20:00
7:45 PM,41.0,33.8,76,29.94,4.0,SSW,15.0,27.6,0.01,Rain,Light Rain,210,2012-11-18 03:45:00
7:53 PM,39.9,33.1,77,29.89,3.0,SW,17.3,28.8,0.02,Rain,Light Rain,220,2012-11-18 03:53:00
8:01 PM,39.2,33.8,81,29.93,2.0,SSW,9.2,28.8,0.01,Rain,Light Rain,210,2012-11-18 04:01:00
8:06 PM,39.2,33.8,81,29.93,5.0,SSW,15.0,26.5,0.02,Rain,Light Rain,200,2012-11-18 04:06:00
8:53 PM,39.0,33.1,79,29.86,3.0,South,18.4,29.9,0.02,Rain,Light Rain,190,2012-11-18 04:53:00
9:14 PM,39.2,33.8,81,29.92,5.0,South,24.2,33.4,0.01,Rain,Light Rain,190,2012-11-18 05:14:00
9:36 PM,39.2,28.4,65,29.92,10.0,SSW,18.4,44.9,0.01,,Overcast,200,2012-11-18 05:36:00
9:53 PM,39.0,28.9,67,29.86,10.0,South,20.7,32.2,0.01,,Overcast,190,2012-11-18 05:53:00
10:30 PM,37.4,28.4,70,29.94,4.0,South,19.6,31.1,0.00,Snow,Light Snow,190,2012-11-18 06:30:00
10:41 PM,35.6,28.4,75,29.95,2.5,South,17.3,26.5,0.00,Snow,Light Snow,190,2012-11-18 06:41:00
10:53 PM,36.0,30.0,79,29.90,1.8,South,17.3,32.2,0.00,Snow,Light Snow,190,2012-11-18 06:53:00
11:25 PM,35.6,30.2,81,29.96,0.8,South,11.5,21.9,0.00,Snow,Light Snow,180,2012-11-18 07:25:00
11:39 PM,35.6,30.2,81,29.97,1.2,South,10.4,20.7,0.00,Snow,Light Snow,190,2012-11-18 07:39:00
11:53 PM,35.1,30.0,82,29.91,1.2,South,16.1,21.9,0.00,Snow,Light Snow,180,2012-11-18 07:53:00